Kitadaito Airport


Codes: RORK/KTD
Name: Kitadaito Airport
City: Kitadait?jima
Country: Japan
Elevation: 80 ft.
Wikipedia:

Photos at Kitadaito Airport


   Photos courtesy of SpottingLog. You can add your own sightings and photos by signing up for a free trial today.



No photos found.

Weather at Kitadaito Airport


Time (UTC)DescriptionTempratureWindCloud coverageVisibilityPressureHumidity
13-Jun-2024 03:00Moderate Rain27°C25 mph, SW100%7553m1007hPa89%
13-Jun-2024 06:00Light Rain27°C18 mph, SW100%10000m1007hPa88%
13-Jun-2024 09:00Moderate Rain27°C18 mph, SW100%10000m1007hPa87%
13-Jun-2024 12:00Light Rain27°C18 mph, SW100%10000m1008hPa86%
13-Jun-2024 15:00Light Rain27°C20 mph, SW100%10000m1007hPa89%
13-Jun-2024 18:00Overcast Clouds27°C22 mph, SW100%10000m1006hPa90%
13-Jun-2024 21:00Moderate Rain27°C18 mph, W91%10000m1007hPa86%
14-Jun-2024 00:00Light Rain27°C13 mph, SW95%10000m1008hPa87%
14-Jun-2024 03:00Light Rain27°C16 mph, SW99%10000m1008hPa86%
14-Jun-2024 06:00Light Rain27°C18 mph, SW100%10000m1007hPa91%
14-Jun-2024 09:00Light Rain27°C18 mph, SW100%9590m1007hPa90%
14-Jun-2024 12:00Light Rain27°C20 mph, SW100%10000m1009hPa84%
14-Jun-2024 15:00Light Rain27°C16 mph, SW100%10000m1009hPa87%
14-Jun-2024 18:00Light Rain27°C16 mph, SW100%8462m1008hPa92%
14-Jun-2024 21:00Moderate Rain27°C18 mph, SW100%10000m1008hPa91%
15-Jun-2024 00:00Moderate Rain27°C20 mph, SW99%10000m1009hPa91%
15-Jun-2024 03:00Overcast Clouds27°C22 mph, SW100%10000m1009hPa91%
15-Jun-2024 06:00Overcast Clouds27°C20 mph, SW100%10000m1008hPa91%
15-Jun-2024 09:00Light Rain27°C20 mph, SW100%10000m1009hPa91%
15-Jun-2024 12:00Light Rain27°C18 mph, SW100%10000m1010hPa90%
15-Jun-2024 15:00Light Rain27°C16 mph, SW100%10000m1010hPa92%
15-Jun-2024 18:00Light Rain27°C18 mph, SW99%10000m1009hPa89%
15-Jun-2024 21:00Light Rain27°C16 mph, SW100%10000m1010hPa90%
16-Jun-2024 00:00Light Rain27°C16 mph, SW100%10000m1011hPa89%
16-Jun-2024 03:00Overcast Clouds27°C16 mph, SW100%10000m1011hPa90%
16-Jun-2024 06:00Light Rain27°C13 mph, SW95%10000m1011hPa89%
16-Jun-2024 09:00Light Rain27°C11 mph, SW88%7262m1011hPa87%
16-Jun-2024 12:00Light Rain27°C11 mph, SW67%10000m1012hPa88%
16-Jun-2024 15:00Overcast Clouds27°C13 mph, S89%10000m1012hPa90%
16-Jun-2024 18:00Light Rain27°C11 mph, SW95%10000m1011hPa91%
16-Jun-2024 21:00Light Rain27°C11 mph, SW100%10000m1012hPa90%
17-Jun-2024 00:00Light Rain27°C13 mph, SW76%10000m1013hPa88%
17-Jun-2024 03:00Scattered Clouds27°C11 mph, SW28%10000m1012hPa85%
17-Jun-2024 06:00Few Clouds27°C9 mph, SW23%10000m1011hPa89%
17-Jun-2024 09:00Light Rain27°C9 mph, SW93%10000m1012hPa86%
17-Jun-2024 12:00Light Rain27°C9 mph, S98%10000m1013hPa86%
17-Jun-2024 15:00Light Rain27°C11 mph, S94%10000m1012hPa90%
17-Jun-2024 18:00Light Rain27°C13 mph, S93%10000m1011hPa88%
17-Jun-2024 21:00Light Rain27°C13 mph, S99%10000m1011hPa87%
18-Jun-2024 00:00Overcast Clouds27°C16 mph, S86%10000m1011hPa89%